sat.trackr.live / text

‹ back to catalog

YUNHAI-3 01

NORAD 54235 · 2022-151A

PAYLOAD ACTIVE UNKNOWN

§ Identity

Operator
Country
PRC
Launch date
2022-11-11
Launch site
TAISC
Launch vehicle
Mass (kg)
RCS (m²)

External: N2YO · Heavens-Above · Gunter

§ Orbital elements

Epoch: 2026-09-20T23:49:21.836640Z

Period
101.88 min
Inclination
98.8217°
Eccentricity
0.0001263
Mean motion
14.13373509 rev/d
Perigee alt
846.9 km
Apogee alt
848.8 km
Semi-major
7,226.0 km
B*
1.8552e-5
RAAN
270.0526°
Arg perigee
145.2762°
Mean anomaly
214.8493°
Rev number
19,847

§ Raw data

YUNHAI-3 011 54235U 22151A   26263.99261385 -.00000009  00000+0  18552-4 0  99962 54235  98.8217 270.0526 0001263 145.2762 214.8493 14.13373509198473

JSON: /api/v1/satellites/54235 · /tle

For live sub-satellite position, see the globe view (requires WebGL).

§ Visibility from observer

Set your observer location to see the next 7 days of passes ≥ 10°. The values pass through the URL so the page stays shareable.

No JS? Fill the form by hand. The geolocation button needs JavaScript.